Weather in Zolotniky

Ukraine / Ternopil District     49°17′18″N   25°24′15″E
temp.,
°C
wind,
m/s
gust,
m/s
humid.,
%
clouds,
%
prec.,
mm/h
press.,
hPa
HPBL,
m
19 april, mon
mon1900:00+9nne1171100 0.0 101713
03:00+8nne0173100 0.0 101710
06:00+8nnw1173100 0.0 101611
09:00+8e1183100 0.1 101646
12:00+10wsw1171100 0.3 1015672
15:00+11e1261100 1.0 1014971
18:00+12ese3358100 0.7 10131098
21:00+8ese2380100 1.4 101466
20 april, tue
tue2000:00+7e3687100 0.8 1014179
03:00+6se119190 1.0 101320
06:00+6nne359196 0.5 1013162
09:00+8ene357582 0.6 1013425
12:00+10nne335946 0.7 10121235
15:00+13n334879 1.1 10101783
18:00+12nne455535 0.4 10101321
21:00+8ene337527 0.9 101246
21 april, wed
wed2100:00+6se007984 0.0 101210
03:00+6wsw2283100 0.0 101329
06:00+5w3488100 0.0 101369
09:00+8w467968 0.0 1014347
12:00+12wnw566350 0.7 10131256
15:00+14w675169 2.4 10121936
18:00+13wnw485578 0.6 10131691
21:00+9wsw22715 0.6 101415
22 april, thu
thu2200:00+7wsw337771 0.0 101441
03:00+8sw3573100 0.0 1014101
06:00+7sw4976100 0.0 1015225
09:00+10sw587699 0.1 1015499
12:00+14sw565858 0.2 10151514
15:00+14wsw475559 0.9 10141701
18:00+14sw58577 0.2 10131319
21:00+10sw49715 0.2 1014174
23 april, fri
fri2300:00+8nw248677 0.1 1014242
03:00+7nnw349493 0.3 1013227
06:00+3nw5996100 0.5 1016485
09:00+5wnw4582100 0.6 1017440
12:00+9wnw6858100 0.0 10181557
15:00+9wnw7957100 0.1 10181566
18:00+8nw7855100 0.0 10191338
21:00+4wnw35730 0.0 1020159